| time (UTC) | temp C | wind direction | speed KPH | gust KPH | rain 1hr cm | rain 24hr cm | rain mn cm | humidity % | barometer mb |
| 20260905211519 | 26 | 189 | 12.9 | 20.9 | 0.00 | 0.08 | 0.00 | 27 | 1025.7 |
| 20260905210520 | 26 | 171 | 11.3 | 24.1 | 0.00 | 0.08 | 0.00 | 28 | 1025.7 |
| 20260905205520 | 27 | 199 | 12.9 | 25.7 | 0.00 | 0.08 | 0.00 | 27 | 1025.8 |
| 20260905204520 | 27 | 167 | 9.7 | 20.9 | 0.00 | 0.08 | 0.00 | 26 | 1025.8 |
| 20260905203518 | 26 | 171 | 12.9 | 22.5 | 0.00 | 0.08 | 0.00 | 28 | 1025.9 |
| 20260905202518 | 27 | 131 | 9.7 | 20.9 | 0.00 | 0.08 | 0.00 | 27 | 1026.1 |
| 20260905201521 | 26 | 172 | 12.9 | 22.5 | 0.00 | 0.08 | 0.00 | 28 | 1026.2 |
| 20260905200518 | 26 | 138 | 8.0 | 19.3 | 0.00 | 0.08 | 0.00 | 29 | 1026.3 |
| 20260905195538 | 27 | 184 | 16.1 | 24.1 | 0.00 | 0.08 | 0.00 | 28 | 1026.3 |
| 20260905194518 | 27 | 278 | 8.0 | 17.7 | 0.00 | 0.08 | 0.00 | 27 | 1026.5 |
| 20260905193518 | 26 | 124 | 6.4 | 12.9 | 0.00 | 0.08 | 0.00 | 29 | 1026.6 |
| 20260905192519 | 26 | 166 | 14.5 | 24.1 | 0.00 | 0.08 | 0.00 | 29 | 1026.7 |
| 20260905191518 | 26 | 150 | 4.8 | 11.3 | 0.00 | 0.08 | 0.00 | 30 | 1026.8 |
| 20260905190519 | 25 | 203 | 12.9 | 22.5 | 0.00 | 0.08 | 0.00 | 31 | 1026.9 |
| 20260905185519 | 26 | 183 | 11.3 | 19.3 | 0.00 | 0.08 | 0.00 | 31 | 1027.0 |
| 20260905184519 | 25 | 280 | 4.8 | 9.7 | 0.00 | 0.08 | 0.00 | 31 | 1027.1 |
| 20260905183600 | 25 | 293 | 6.4 | 14.5 | 0.00 | 0.08 | 0.00 | 31 | 1027.3 |
| 20260905182520 | 25 | 302 | 8.0 | 12.9 | 0.00 | 0.08 | 0.00 | 31 | 1027.4 |
| 20260905181520 | 25 | 177 | 6.4 | 14.5 | 0.00 | 0.08 | 0.00 | 32 | 1027.5 |
| 20260905180520 | 25 | 209 | 9.7 | 19.3 | 0.00 | 0.08 | 0.00 | 32 | 1027.6 |
| 20260905175520 | 24 | 205 | 4.8 | 12.9 | 0.00 | 0.08 | 0.00 | 32 | 1027.7 |
| 20260905174521 | 24 | 202 | 8.0 | 14.5 | 0.00 | 0.08 | 0.00 | 32 | 1027.7 |
| 20260905173521 | 24 | 188 | 6.4 | 9.7 | 0.00 | 0.08 | 0.00 | 32 | 1027.8 |
| 20260905172521 | 23 | 44 | 3.2 | 14.5 | 0.00 | 0.08 | 0.00 | 32 | 1027.9 |
| 20260905171523 | 23 | 32 | 6.4 | 11.3 | 0.00 | 0.08 | 0.00 | 33 | 1027.9 |
| 20260905170530 | 23 | 270 | 3.2 | 8.0 | 0.00 | 0.08 | 0.00 | 34 | 1028.0 |
| 20260905165551 | 23 | 58 | 3.2 | 6.4 | 0.00 | 0.08 | 0.00 | 33 | 1027.9 |
| 20260905164521 | 23 | 53 | 3.2 | 8.0 | 0.00 | 0.08 | 0.00 | 35 | 1028.0 |
| 20260905163551 | 22 | 317 | 3.2 | 6.4 | 0.00 | 0.08 | 0.00 | 36 | 1028.1 |
| 20260905162542 | 22 | 45 | 3.2 | 8.0 | 0.00 | 0.08 | 0.00 | 39 | 1028.1 |
| 20260905161522 | 22 | 198 | 3.2 | 11.3 | 0.00 | 0.08 | 0.00 | 40 | 1028.1 |
| 20260905160531 | 21 | 251 | 1.6 | 3.2 | 0.00 | 0.08 | 0.00 | 41 | 1028.2 |
| 20260905155531 | 20 | 118 | 3.2 | 6.4 | 0.00 | 0.08 | 0.00 | 44 | 1028.2 |
| 20260905154517 | 20 | 352 | 1.6 | 4.8 | 0.00 | 0.08 | 0.00 | 46 | 1028.1 |
| 20260905153531 | 18 | 15 | 1.6 | 3.2 | 0.00 | 0.08 | 0.00 | 49 | 1028.1 |
| 20260905152532 | 17 | 54 | 1.6 | 4.8 | 0.00 | 0.08 | 0.00 | 53 | 1028.3 |
| 20260905151552 | 17 | 46 | 1.6 | 4.8 | 0.00 | 0.08 | 0.00 | 53 | 1028.3 |
| 20260905150532 | 17 | 344 | 4.8 | 6.4 | 0.00 | 0.08 | 0.00 | 54 | 1028.3 |
| 20260905145532 | 16 | 338 | 3.2 | 4.8 | 0.00 | 0.08 | 0.00 | 57 | 1028.5 |
| 20260905144518 | 16 | 301 | 1.6 | 3.2 | 0.00 | 0.08 | 0.00 | 60 | 1028.5 |
| 20260905143518 | 16 | 262 | 3.2 | 4.8 | 0.00 | 0.08 | 0.00 | 59 | 1028.4 |
| 20260905142518 | 15 | 241 | 4.8 | 8.0 | 0.00 | 0.08 | 0.00 | 61 | 1028.3 |
| 20260905141518 | 15 | 237 | 3.2 | 6.4 | 0.00 | 0.08 | 0.00 | 62 | 1028.3 |
| 20260905140518 | 15 | 245 | 3.2 | 4.8 | 0.00 | 0.08 | 0.00 | 61 | 1028.2 |
| 20260905135519 | 15 | 228 | 3.2 | 6.4 | 0.00 | 0.08 | 0.00 | 63 | 1028.1 |
| 20260905134519 | 14 | 174 | 3.2 | 4.8 | 0.00 | 0.08 | 0.00 | 65 | 1028.0 |
| 20260905133519 | 14 | 156 | 3.2 | 4.8 | 0.00 | 0.08 | 0.00 | 69 | 1028.0 |
| 20260905132519 | 14 | 137 | 1.6 | 3.2 | 0.00 | 0.08 | 0.00 | 66 | 1027.9 |
| 20260905131520 | 14 | 237 | 4.8 | 6.4 | 0.00 | 0.08 | 0.00 | 68 | 1027.8 |
| 20260905130520 | 14 | 179 | 8.0 | 9.7 | 0.00 | 0.08 | 0.00 | 66 | 1027.6 |
| 20260905125520 | 14 | 191 | 4.8 | 6.4 | 0.00 | 0.08 | 0.00 | 67 | 1027.5 |
| 20260905124519 | 15 | 236 | 3.2 | 6.4 | 0.00 | 0.08 | 0.00 | 66 | 1027.4 |
| 20260905123521 | 15 | 184 | 6.4 | 9.7 | 0.00 | 0.08 | 0.00 | 60 | 1027.1 |
| 20260905122520 | 15 | 149 | 8.0 | 11.3 | 0.00 | 0.08 | 0.00 | 60 | 1027.0 |
| 20260905121521 | 15 | 153 | 9.7 | 11.3 | 0.00 | 0.08 | 0.00 | 60 | 1027.0 |
| 20260905120521 | 15 | 153 | 9.7 | 11.3 | 0.00 | 0.08 | 0.00 | 59 | 1027.0 |
| 20260905115521 | 15 | 149 | 9.7 | 11.3 | 0.00 | 0.08 | 0.00 | 59 | 1027.0 |
| 20260905114521 | 15 | 149 | 8.0 | 11.3 | 0.00 | 0.08 | 0.00 | 61 | 1027.1 |
| 20260905113541 | 15 | 148 | 8.0 | 11.3 | 0.00 | 0.08 | 0.00 | 61 | 1027.1 |
| 20260905112522 | 15 | 158 | 9.7 | 12.9 | 0.00 | 0.08 | 0.00 | 62 | 1027.2 |
| 20260905111542 | 15 | 152 | 11.3 | 14.5 | 0.00 | 0.08 | 0.00 | 61 | 1027.0 |
| 20260905110522 | 14 | 151 | 9.7 | 14.5 | 0.00 | 0.08 | 0.00 | 62 | 1027.0 |
| 20260905105522 | 14 | 154 | 9.7 | 12.9 | 0.00 | 0.08 | 0.00 | 63 | 1027.0 |
| 20260905104542 | 14 | 154 | 9.7 | 11.3 | 0.00 | 0.08 | 0.00 | 62 | 1027.0 |
| 20260905103523 | 14 | 159 | 9.7 | 12.9 | 0.00 | 0.08 | 0.00 | 63 | 1026.9 |
| 20260905102517 | 14 | 159 | 9.7 | 12.9 | 0.00 | 0.08 | 0.00 | 62 | 1026.9 |
| 20260905101517 | 15 | 130 | 6.4 | 8.0 | 0.00 | 0.08 | 0.00 | 63 | 1026.9 |
| 20260905100524 | 15 | 146 | 8.0 | 11.3 | 0.00 | 0.08 | 0.00 | 63 | 1026.8 |
| 20260905095603 | 15 | 153 | 8.0 | 11.3 | 0.00 | 0.08 | 0.00 | 62 | 1026.9 |
| 20260905094518 | 15 | 156 | 11.3 | 14.5 | 0.00 | 0.08 | 0.00 | 61 | 1026.9 |
| 20260905093518 | 15 | 161 | 12.9 | 16.1 | 0.00 | 0.08 | 0.00 | 61 | 1026.9 |
| 20260905092518 | 15 | 157 | 12.9 | 16.1 | 0.00 | 0.08 | 0.00 | 62 | 1026.9 |
| 20260905091518 | 15 | 157 | 12.9 | 16.1 | 0.00 | 0.08 | 0.00 | 62 | 1027.0 |
| 20260905090521 | 15 | 153 | 12.9 | 17.7 | 0.00 | 0.08 | 0.00 | 63 | 1027.0 |
| 20260905085538 | 15 | 160 | 11.3 | 14.5 | 0.00 | 0.08 | 0.00 | 64 | 1027.0 |
| 20260905084519 | 14 | 163 | 12.9 | 16.1 | 0.00 | 0.08 | 0.00 | 65 | 1027.0 |
| 20260905083519 | 13 | 188 | 11.3 | 14.5 | 0.00 | 0.08 | 0.00 | 70 | 1027.1 |
| 20260905082519 | 14 | 183 | 12.9 | 19.3 | 0.00 | 0.08 | 0.00 | 66 | 1027.0 |
| 20260905081519 | 14 | 163 | 9.7 | 12.9 | 0.00 | 0.08 | 0.00 | 65 | 1027.1 |
| 20260905080559 | 14 | 180 | 12.9 | 17.7 | 0.00 | 0.08 | 0.00 | 64 | 1027.1 |
| 20260905075519 | 14 | 163 | 12.9 | 17.7 | 0.00 | 0.08 | 0.00 | 64 | 1027.1 |
| 20260905074519 | 13 | 158 | 12.9 | 16.1 | 0.00 | 0.08 | 0.00 | 66 | 1027.1 |
| 20260905073520 | 13 | 159 | 9.7 | 12.9 | 0.00 | 0.08 | 0.00 | 69 | 1027.1 |
| 20260905072520 | 13 | 162 | 11.3 | 12.9 | 0.00 | 0.08 | 0.00 | 68 | 1027.1 |
| 20260905071520 | 13 | 159 | 12.9 | 16.1 | 0.00 | 0.08 | 0.00 | 68 | 1027.1 |
| 20260905070518 | 14 | 162 | 11.3 | 16.1 | 0.00 | 0.08 | 0.00 | 67 | 1027.0 |
| 20260905065521 | 14 | 156 | 11.3 | 14.5 | 0.00 | 0.08 | 0.00 | 64 | 1027.0 |
| 20260905064521 | 14 | 178 | 9.7 | 12.9 | 0.00 | 0.08 | 0.00 | 67 | 1027.0 |
| 20260905063521 | 15 | 144 | 9.7 | 12.9 | 0.00 | 0.08 | 0.00 | 63 | 1026.9 |
| 20260905062541 | 14 | 157 | 9.7 | 14.5 | 0.00 | 0.08 | 0.00 | 64 | 1026.9 |
| 20260905061522 | 14 | 153 | 9.7 | 12.9 | 0.00 | 0.08 | 0.00 | 64 | 1026.8 |
| 20260905060521 | 14 | 160 | 11.3 | 14.5 | 0.00 | 0.08 | 0.00 | 64 | 1026.8 |
| 20260905055522 | 15 | 167 | 11.3 | 16.1 | 0.00 | 0.08 | 0.08 | 62 | 1026.8 |
| 20260905054522 | 15 | 161 | 11.3 | 14.5 | 0.00 | 0.08 | 0.08 | 60 | 1026.7 |
| 20260905053522 | 14 | 153 | 8.0 | 9.7 | 0.00 | 0.08 | 0.08 | 61 | 1026.7 |
| 20260905052522 | 13 | 141 | 6.4 | 9.7 | 0.00 | 0.08 | 0.08 | 64 | 1026.8 |
| 20260905051549 | 13 | 143 | 6.4 | 8.0 | 0.00 | 0.08 | 0.08 | 64 | 1026.9 |
| 20260905050517 | 13 | 135 | 6.4 | 9.7 | 0.00 | 0.08 | 0.08 | 64 | 1027.0 |
| 20260905045517 | 14 | 147 | 6.4 | 9.7 | 0.00 | 0.08 | 0.08 | 63 | 1027.0 |
| 20260905044517 | 14 | 151 | 8.0 | 11.3 | 0.00 | 0.08 | 0.08 | 63 | 1027.0 |
| 20260905043523 | 15 | 153 | 8.0 | 11.3 | 0.00 | 0.08 | 0.08 | 63 | 1027.0 |
| 20260905042524 | 14 | 151 | 8.0 | 12.9 | 0.00 | 0.08 | 0.08 | 65 | 1027.0 |
| 20260905041518 | 14 | 153 | 8.0 | 11.3 | 0.00 | 0.08 | 0.08 | 67 | 1027.1 |
| 20260905040518 | 13 | 154 | 8.0 | 11.3 | 0.00 | 0.08 | 0.08 | 71 | 1027.1 |
| 20260905035518 | 14 | 187 | 11.3 | 14.5 | 0.00 | 0.08 | 0.08 | 73 | 1027.0 |
| 20260905034518 | 15 | 190 | 12.9 | 16.1 | 0.00 | 0.08 | 0.08 | 71 | 1027.0 |
| 20260905033519 | 15 | 183 | 12.9 | 17.7 | 0.00 | 0.08 | 0.08 | 65 | 1026.8 |
| 20260905032519 | 15 | 177 | 14.5 | 19.3 | 0.00 | 0.08 | 0.08 | 63 | 1026.7 |
| 20260905031519 | 15 | 172 | 9.7 | 14.5 | 0.00 | 0.08 | 0.08 | 69 | 1026.7 |
| 20260905030519 | 15 | 191 | 12.9 | 17.7 | 0.00 | 0.08 | 0.08 | 67 | 1026.6 |
| 20260905025519 | 16 | 185 | 12.9 | 16.1 | 0.00 | 0.08 | 0.08 | 59 | 1026.5 |
| 20260905024519 | 17 | 150 | 9.7 | 14.5 | 0.00 | 0.08 | 0.08 | 53 | 1026.1 |
| 20260905023519 | 17 | 146 | 11.3 | 14.5 | 0.00 | 0.08 | 0.08 | 58 | 1026.0 |
| 20260905022520 | 16 | 150 | 12.9 | 17.7 | 0.05 | 0.08 | 0.08 | 58 | 1026.0 |
| 20260905021520 | 16 | 175 | 14.5 | 17.7 | 0.05 | 0.08 | 0.08 | 62 | 1026.0 |
| 20260905020517 | 16 | 171 | 16.1 | 22.5 | 0.08 | 0.08 | 0.08 | 62 | 1025.9 |
| 20260905015517 | 16 | 191 | 16.1 | 19.3 | 0.08 | 0.08 | 0.08 | 66 | 1026.0 |
| 20260905014521 | 16 | 201 | 16.1 | 24.1 | 0.08 | 0.08 | 0.08 | 66 | 1026.0 |
| 20260905013518 | 17 | 225 | 16.1 | 22.5 | 0.08 | 0.08 | 0.08 | 61 | 1026.0 |
| 20260905012538 | 18 | 232 | 14.5 | 24.1 | 0.03 | 0.03 | 0.03 | 58 | 1026.0 |
| 20260905011518 | 21 | 219 | 16.1 | 22.5 | 0.03 | 0.03 | 0.03 | 49 | 1025.8 |
| 20260905010518 | 22 | 190 | 17.7 | 24.1 | 0.00 | 0.00 | 0.00 | 44 | 1025.4 |
| 20260905005522 | 22 | 175 | 16.1 | 22.5 | 0.00 | 0.00 | 0.00 | 42 | 1025.2 |
| 20260905004520 | 22 | 167 | 12.9 | 19.3 | 0.00 | 0.00 | 0.00 | 39 | 1025.1 |
| 20260905003519 | 23 | 168 | 12.9 | 17.7 | 0.00 | 0.00 | 0.00 | 37 | 1025.0 |
| 20260905002522 | 24 | 157 | 12.9 | 14.5 | 0.00 | 0.00 | 0.00 | 35 | 1024.9 |
| 20260905001523 | 24 | 183 | 11.3 | 14.5 | 0.00 | 0.00 | 0.00 | 35 | 1025.0 |
| 20260905000543 | 24 | 128 | 4.8 | 8.0 | 0.00 | 0.00 | 0.00 | 34 | 1025.0 |
| 20260904235520 | 24 | 283 | 4.8 | 8.0 | 0.00 | 0.00 | 0.00 | 31 | 1024.9 |
| 20260904234517 | 23 | 269 | 4.8 | 8.0 | 0.00 | 0.00 | 0.00 | 31 | 1024.9 |
| 20260904233523 | 24 | 264 | 4.8 | 11.3 | 0.00 | 0.00 | 0.00 | 31 | 1024.8 |
| 20260904232523 | 24 | 246 | 4.8 | 9.7 | 0.00 | 0.00 | 0.00 | 30 | 1024.9 |
| 20260904231520 | 25 | 266 | 1.6 | 4.8 | 0.00 | 0.00 | 0.00 | 29 | 1024.9 |
| 20260904230521 | 25 | 271 | 3.2 | 6.4 | 0.00 | 0.00 | 0.00 | 30 | 1024.9 |
| 20260904225518 | 25 | 264 | 9.7 | 16.1 | 0.00 | 0.00 | 0.00 | 30 | 1024.9 |
| 20260904224521 | 25 | 209 | 4.8 | 8.0 | 0.00 | 0.00 | 0.00 | 28 | 1024.9 |
| 20260904223518 | 25 | 213 | 6.4 | 9.7 | 0.00 | 0.00 | 0.00 | 28 | 1025.0 |
| 20260904222544 | 24 | 280 | 6.4 | 14.5 | 0.00 | 0.00 | 0.00 | 30 | 1025.0 |
| 20260904221519 | 24 | 299 | 6.4 | 9.7 | 0.00 | 0.00 | 0.00 | 30 | 1025.1 |
| 20260904220519 | 24 | 285 | 8.0 | 14.5 | 0.00 | 0.00 | 0.00 | 30 | 1025.2 |
| 20260904215519 | 25 | 305 | 6.4 | 12.9 | 0.00 | 0.00 | 0.00 | 30 | 1025.3 |
| 20260904214519 | 25 | 294 | 9.7 | 17.7 | 0.00 | 0.00 | 0.00 | 30 | 1025.4 |
| 20260904213519 | 25 | 310 | 8.0 | 16.1 | 0.00 | 0.00 | 0.00 | 29 | 1025.3 |
| 20260904212520 | 26 | 286 | 16.1 | 25.7 | 0.00 | 0.00 | 0.00 | 27 | 1025.3 |